STARLINK-1656, 46353

Orbit data source: Space-Track

STARLINK-1656, 46353 is a payload satellite owned by SpaceX/Seattle (US) in LEO that was launched on Thu, 03 Sep 2020 UTC via an FALCON 9 launch vehicle from the Air Force Eastern Test Range (AFETR). Payload-class satellites include a variety of spacecraft equipped with specific instruments for various scientific and technological missions. These include communications satellites like Starlink; space stations such as the ISS; scientific satellites like the Hubble; Earth observation satellites from companies like Planet Labs, Umbra, and HawkEye 360; GPS; miniature CubeSats for education and research; and military/defense satellites.

Loading next visibility...
Identifier
46353, 2020-062AE
Orbit
LEO
Country
Flag of USUS
Related business
Manufacturer
SpaceX/Seattle
Mission
Operational Commercial Communications
Bus & Motor
STARLINK, Unknown motor
Mass
260 kg wet, ~248 kg dry
Launch date (UTC)
2020-09-03 (5 years ago)
Launch vehicle
FALCON 9
Launch site
Air Force Eastern Test Range (AFETR)
Object type
Payload
Rocket body
Debris
Shape & HBR
Box + 1 Pan, 10.1 m
Radar Cross Section
13.562 m², Large (>1 m²)

Expand to show TLE details & history
Last TLE update: 11 hours ago

TLE from 11 hours ago
0 STARLINK-1656
1 46353U 20062AE  26034.66668981  .00113105  00000-0  24225-2 0  9994
2 46353  53.0516 162.5208 0005168 328.3016  70.4495 15.43911643  5843
Epoch: 2026-02-03T16:00Z
TLE epoch observation values (Epoch: 2026-02-03T16:00:01.999Z)
Latitude
30.15007°
Longitude
174.41854°
Altitude
435.112 km
Speed
7.655 km/s
True Right ascension
12h 33m 05s
True Declination
29° 59' 38"
Sunlit
Object was in full shadow at epoch
Visualization orbit readout
Latitude
Unknown
Longitude
Unknown
Altitude
Unknown
Speed
Unknown
Apparent Right ascension
Unknown
Apparent Declination
Unknown
Sunlit
N/A
Visualization observer readout
Local Sidereal Time
05:08:18
Azimuth
Unknown
Elevation
Unknown
Doppler factor
Unknown
Orbital elements
Apogee altitude
438.374 km
Perigee altitude
431.332 km
Semi-major axis
6,812.99 km
Eccentricity
0.00052
Inclination
53.0516°
RAAN
162.5208°
Arg. of periapsis
328.3016°
True anomaly
70.50532°
Mean anomaly
70.4495°
Eccentric anomaly
70.47741°
Mean motion
3.85955 °/min
Orbital period
93.28 mins
BSTAR
0.0024225
Loading maneuver chart data...
Computing Atmospheric mass density...
Loading historical data...
Loading historical data...
Loading historical data...
Loading historical data...
Loading historical data...
Loading historical data...
Loading historical data...

Documentation

Showing up to 5 results
|